QPF
0.03 0.04 0.04 0.03 0.04 0.02 0.03 0.03 0.03 0.02 0.02 0.03 0.04 0.04 0.06 0.06 0.07 0.06 0.04 0.05 0.10 0.12 0.08 0.08 0.10 0.11 0.09 0.08 0.08 0.08 0.11 0.13 0.14 0.14 0.11 0.08 0.07 0.08 0.10 0.10 0.10 0.08 0.10 0.14
0.03 0.03 0.02 0.02 0.02 0.02 0.02 0.03 0.02 0.02 0.02 0.03 0.04 0.06 0.07 0.05 0.07 0.07 0.05 0.06 0.09 0.11 0.11 0.09 0.10 0.12 0.10 0.11 0.10 0.08 0.09 0.11 0.11 0.13 0.11 0.07 0.05 0.04 0.06 0.08 0.09 0.08 0.08 0.12
0.03 0.03 0.01 0.01 0.02 0.03 0.03 0.03 0.02 0.03 0.04 0.04 0.05 0.06 0.04 0.04 0.05 0.06 0.05 0.05 0.07 0.08 0.09 0.09 0.08 0.10 0.11 0.13 0.11 0.08 0.09 0.11 0.09 0.11 0.12 0.07 0.05 0.04 0.05 0.07 0.07 0.07 0.08 0.09
0.03 0.02 0.01 0.01 0.01 0.02 0.02 0.02 0.02 0.02 0.04 0.04 0.04 0.06 0.04 0.03 0.04 0.04 0.05 0.05 0.06 0.07 0.08 0.08 0.06 0.08 0.10 0.10 0.11 0.09 0.08 0.10 0.12 0.11 0.10 0.08 0.05 0.04 0.03 0.04 0.05 0.05 0.05 0.06
0.02 0.01 0.02 0.02 0.02 0.02 0.01 0.01 0.02 0.03 0.04 0.04 0.05 0.06 0.05 0.02 0.02 0.02 0.03 0.04 0.05 0.07 0.08 0.07 0.07 0.09 0.10 0.10 0.08 0.07 0.07 0.08 0.11 0.13 0.10 0.08 0.05 0.03 0.03 0.03 0.03 0.04 0.04 0.04
0.01 0.01 0.01 0.02 0.01 0.02 0.02 0.02 0.03 0.04 0.04 0.04 0.04 0.05 0.04 0.02 0.02 0.02 0.02 0.03 0.04 0.05 0.07 0.06 0.06 0.07 0.11 0.13 0.09 0.06 0.04 0.04 0.06 0.11 0.12 0.09 0.06 0.04 0.03 0.03 0.03 0.04 0.04 0.05
0.03 0.02 0.01 0.01 0.01 0.01 0.02 0.04 0.06 0.06 0.05 0.04 0.02 0.03 0.04 0.02 0.01 0.01 0.02 0.02 0.03 0.04 0.04 0.03 0.04 0.06 0.08 0.11 0.08 0.06 0.05 0.04 0.04 0.06 0.09 0.10 0.08 0.05 0.04 0.04 0.03 0.04 0.04 0.05
0.03 0.03 0.01 0.01 0.01 0.02 0.02 0.03 0.05 0.06 0.03 0.02 0.02 0.02 0.02 0.01 0.01 0.01 0.01 0.02 0.02 0.03 0.03 0.03 0.03 0.05 0.07 0.08 0.06 0.05 0.04 0.03 0.04 0.05 0.06 0.07 0.08 0.06 0.04 0.04 0.03 0.03 0.03 0.04
0.02 0.03 0.02 0.01 0.01 0.02 0.02 0.02 0.02 0.04 0.03 0.03 0.02 0.02 0.01 0.01 0.00 0.00 0.01 0.01 0.01 0.01 0.01 0.02 0.03 0.03 0.05 0.06 0.05 0.04 0.04 0.04 0.04 0.04 0.03 0.03 0.04 0.04 0.04 0.03 0.03 0.03 0.03 0.04
0.02 0.03 0.02 0.01 0.01 0.01 0.01 0.01 0.02 0.03 0.04 0.04 0.02 0.02 0.01 0.01 0.01 0.01 0.01 0.01 0.01 0.01 0.01 0.02 0.03 0.03 0.03 0.04 0.04 0.03 0.03 0.03 0.03 0.03 0.02 0.02 0.02 0.02 0.03 0.03 0.03 0.03 0.03 0.04
0.01 0.03 0.03 0.01 0.01 0.01 0.01 0.01 0.01 0.02 0.03 0.05 0.03 0.02 0.02 0.01 0.01 0.01 0.01 0.01 0.01 0.01 0.01 0.01 0.02 0.02 0.02 0.03 0.04 0.03 0.03 0.03 0.02 0.02 0.02 0.01 0.01 0.01 0.02 0.02 0.02 0.02 0.03 0.03
0.01 0.02 0.02 0.02 0.01 0.01 0.03 0.03 0.01 0.02 0.02 0.03 0.03 0.03 0.02 0.01 0.01 0.01 0.01 0.01 0.01 0.01 0.00 0.00 0.01 0.01 0.01 0.02 0.03 0.03 0.03 0.03 0.02 0.02 0.02 0.01 0.01 0.01 0.01 0.01 0.02 0.02 0.02 0.02
0.03 0.03 0.02 0.02 0.02 0.01 0.01 0.01 0.01 0.01 0.02 0.03 0.03 0.02 0.02 0.02 0.01 0.01 0.01 0.01 0.01 0.01 0.00 0.00 0.01 0.01 0.01 0.01 0.02 0.02 0.03 0.03 0.03 0.02 0.02 0.01 0.01 0.01 0.01 0.01 0.01 0.01 0.01 0.02
0.04 0.03 0.02 0.02 0.02 0.02 0.02 0.01 0.00 0.01 0.02 0.02 0.02 0.01 0.02 0.02 0.02 0.01 0.01 0.01 0.01 0.01 0.01 0.00 0.00 0.01 0.01 0.01 0.01 0.02 0.03 0.03 0.03 0.02 0.02 0.02 0.02 0.01 0.00 0.01 0.01 0.01 0.01 0.01
0.03 0.03 0.01 0.01 0.01 0.01 0.01 0.01 0.00 0.00 0.01 0.02 0.01 0.01 0.01 0.02 0.02 0.02 0.02 0.01 0.01 0.01 0.01 0.00 0.00 0.01 0.01 0.01 0.01 0.01 0.02 0.04 0.03 0.02 0.02 0.02 0.02 0.01 0.01 0.01 0.01 0.01 0.01 0.02
0.02 0.02 0.01 0.01 0.01 0.01 0.01 0.00 0.00 0.00 0.00 0.01 0.01 0.01 0.01 0.01 0.01 0.01 0.01 0.01 0.01 0.01 0.00 0.00 0.00 0.00 0.00 0.00 0.01 0.01 0.02 0.03 0.03 0.01 0.01 0.02 0.02 0.01 0.01 0.01 0.01 0.02 0.02 0.02
0.02 0.03 0.03 0.02 0.01 0.01 0.01 0.00 0.00 0.00 0.01 0.01 0.01 0.01 0.01 0.01 0.01 0.01 0.01 0.01 0.01 0.01 0.01 0.00 0.00 0.00 0.00 0.00 0.00 0.01 0.01 0.02 0.02 0.01 0.01 0.02 0.01 0.01 0.01 0.01 0.01 0.02 0.03 0.03
0.02 0.02 0.03 0.02 0.02 0.02 0.01 0.00 0.00 0.00 0.01 0.01 0.01 0.01 0.02 0.01 0.01 0.02 0.01 0.01 0.01 0.01 0.01 0.01 0.01 0.00 0.00 0.00 0.00 0.00 0.00 0.01 0.02 0.02 0.01 0.01 0.02 0.01 0.01 0.01 0.01 0.02 0.03 0.04
0.01 0.03 0.04 0.03 0.03 0.01 0.00 0.00 0.00 0.01 0.01 0.01 0.01 0.01 0.01 0.01 0.01 0.01 0.01 0.01 0.01 0.01 0.01 0.01 0.01 0.01 0.00 0.00 0.00 0.00 0.00 0.00 0.01 0.01 0.02 0.02 0.02 0.01 0.01 0.01 0.01 0.02 0.03 0.04
0.01 0.03 0.05 0.04 0.03 0.02 0.00 0.00 0.00 0.01 0.01 0.01 0.01 0.01 0.01 0.01 0.01 0.01 0.00 0.01 0.01 0.01 0.01 0.02 0.01 0.00 0.00 0.00 0.00 0.00 0.00 0.01 0.01 0.01 0.02 0.02 0.02 0.02 0.02 0.01 0.01 0.02 0.03 0.03
0.02 0.03 0.03 0.03 0.03 0.01 0.00 0.00 0.00 0.01 0.02 0.01 0.01 0.01 0.01 0.01 0.01 0.01 0.01 0.01 0.01 0.01 0.02 0.01 0.01 0.00 0.00 0.00 0.00 0.01 0.01 0.01 0.01 0.02 0.02 0.02 0.02 0.02 0.03 0.02 0.02 0.02 0.03 0.04
0.02 0.02 0.02 0.02 0.03 0.01 0.00 0.00 0.01 0.01 0.01 0.01 0.01 0.01 0.01 0.01 0.01 0.01 0.01 0.01 0.01 0.01 0.01 0.02 0.01 0.01 0.00 0.00 0.01 0.01 0.01 0.01 0.01 0.02 0.03 0.03 0.02 0.03 0.04 0.03 0.03 0.03 0.04 0.04
0.01 0.02 0.02 0.02 0.01 0.01 0.01 0.00 0.00 0.00 0.01 0.00 0.00 0.01 0.00 0.00 0.01 0.01 0.01 0.01 0.01 0.01 0.01 0.02 0.02 0.01 0.01 0.01 0.01 0.02 0.02 0.02 0.02 0.02 0.03 0.03 0.04 0.03 0.05 0.04 0.04 0.04 0.04 0.04
0.01 0.01 0.01 0.01 0.01 0.00 0.00 0.00 0.00 0.00 0.01 0.00 0.00 0.00 0.00 0.00 0.00 0.01 0.01 0.01 0.01 0.01 0.01 0.01 0.01 0.01 0.02 0.02 0.02 0.02 0.02 0.02 0.02 0.02 0.03 0.03 0.03 0.04 0.05 0.04 0.03 0.04 0.04 0.04
0.01 0.01 0.01 0.01 0.00 0.00 0.00 0.00 0.00 0.01 0.01 0.00 0.00 0.00 0.00 0.00 0.00 0.00 0.01 0.01 0.01 0.01 0.01 0.01 0.01 0.01 0.02 0.02 0.02 0.02 0.02 0.02 0.02 0.02 0.03 0.02 0.02 0.03 0.04 0.03 0.03 0.04 0.05 0.05
0.01 0.01 0.02 0.01 0.00 0.00 0.00 0.00 0.01 0.01 0.01 0.00 0.00 0.00 0.00 0.00 0.00 0.00 0.00 0.01 0.01 0.01 0.01 0.01 0.01 0.01 0.01 0.02 0.02 0.02 0.02 0.02 0.02 0.02 0.02 0.02 0.02 0.03 0.03 0.03 0.03 0.04 0.05 0.05
MSLP
1010.54 1010.30 1010.14 1010.03 1009.94 1009.80 1009.56 1009.18 1008.63 1007.95 1007.17 1006.33 1005.52 1004.77 1004.14 1003.64 1003.26 1002.96 1002.73 1002.52 1002.32 1002.13 1001.96 1001.84 1001.79 1001.83 1001.96 1002.17 1002.43 1002.71 1002.99 1003.26 1003.52 1003.81 1004.16 1004.63 1005.23 1005.99 1006.90 1007.91 1008.98 1010.05 1011.07 1012.01
1011.06 1010.78 1010.57 1010.39 1010.21 1009.97 1009.62 1009.14 1008.53 1007.81 1007.04 1006.28 1005.59 1005.03 1004.60 1004.32 1004.13 1003.98 1003.82 1003.60 1003.31 1002.94 1002.54 1002.16 1001.84 1001.65 1001.60 1001.69 1001.91 1002.21 1002.55 1002.91 1003.28 1003.66 1004.09 1004.59 1005.21 1005.97 1006.85 1007.85 1008.91 1009.98 1011.01 1011.97
1011.81 1011.48 1011.19 1010.91 1010.60 1010.23 1009.76 1009.18 1008.50 1007.76 1007.04 1006.39 1005.89 1005.56 1005.41 1005.40 1005.47 1005.52 1005.47 1005.27 1004.89 1004.33 1003.66 1002.95 1002.30 1001.78 1001.45 1001.33 1001.42 1001.67 1002.04 1002.47 1002.94 1003.43 1003.95 1004.53 1005.19 1005.96 1006.85 1007.84 1008.89 1009.95 1010.98 1011.94
1012.75 1012.36 1011.97 1011.58 1011.15 1010.65 1010.06 1009.38 1008.64 1007.91 1007.25 1006.74 1006.43 1006.35 1006.49 1006.77 1007.10 1007.37 1007.46 1007.29 1006.83 1006.10 1005.15 1004.10 1003.08 1002.19 1001.53 1001.14 1001.04 1001.18 1001.53 1002.00 1002.55 1003.15 1003.77 1004.44 1005.16 1005.97 1006.88 1007.86 1008.90 1009.95 1010.97 1011.93
1013.82 1013.36 1012.89 1012.40 1011.86 1011.25 1010.56 1009.82 1009.05 1008.33 1007.74 1007.35 1007.22 1007.36 1007.74 1008.28 1008.85 1009.30 1009.51 1009.39 1008.87 1007.98 1006.79 1005.44 1004.06 1002.82 1001.82 1001.15 1000.82 1000.82 1001.10 1001.58 1002.18 1002.86 1003.59 1004.34 1005.14 1006.00 1006.92 1007.91 1008.94 1009.97 1010.98 1011.93
1014.95 1014.45 1013.92 1013.36 1012.74 1012.07 1011.34 1010.56 1009.79 1009.10 1008.57 1008.28 1008.27 1008.55 1009.10 1009.80 1010.52 1011.11 1011.40 1011.30 1010.74 1009.74 1008.37 1006.77 1005.11 1003.57 1002.27 1001.33 1000.78 1000.63 1000.82 1001.27 1001.90 1002.64 1003.43 1004.27 1005.13 1006.03 1006.98 1007.97 1008.99 1010.01 1011.01 1011.94
1016.10 1015.58 1015.02 1014.43 1013.81 1013.13 1012.40 1011.65 1010.91 1010.25 1009.77 1009.52 1009.56 1009.90 1010.49 1011.25 1012.02 1012.64 1012.97 1012.87 1012.28 1011.21 1009.72 1007.97 1006.12 1004.36 1002.84 1001.68 1000.95 1000.64 1000.72 1001.12 1001.74 1002.50 1003.34 1004.23 1005.14 1006.08 1007.05 1008.04 1009.05 1010.05 1011.03 1011.95
1017.23 1016.71 1016.17 1015.61 1015.02 1014.40 1013.74 1013.06 1012.38 1011.78 1011.32 1011.07 1011.08 1011.38 1011.91 1012.60 1013.30 1013.87 1014.15 1014.01 1013.40 1012.30 1010.78 1008.96 1007.03 1005.15 1003.49 1002.18 1001.30 1000.86 1000.83 1001.15 1001.73 1002.47 1003.33 1004.24 1005.17 1006.13 1007.10 1008.09 1009.08 1010.07 1011.03 1011.94
1018.31 1017.81 1017.32 1016.83 1016.35 1015.84 1015.30 1014.73 1014.15 1013.61 1013.16 1012.88 1012.81 1012.97 1013.34 1013.85 1014.39 1014.81 1014.99 1014.79 1014.15 1013.05 1011.55 1009.75 1007.82 1005.92 1004.21 1002.82 1001.83 1001.27 1001.13 1001.35 1001.85 1002.55 1003.37 1004.26 1005.20 1006.15 1007.11 1008.09 1009.07 1010.04 1010.98 1011.88
1019.31 1018.85 1018.44 1018.06 1017.70 1017.35 1016.97 1016.55 1016.09 1015.63 1015.20 1014.86 1014.67 1014.65 1014.79 1015.06 1015.36 1015.57 1015.59 1015.30 1014.63 1013.56 1012.12 1010.40 1008.55 1006.69 1004.99 1003.57 1002.51 1001.85 1001.59 1001.69 1002.08 1002.69 1003.45 1004.29 1005.19 1006.12 1007.07 1008.02 1008.98 1009.93 1010.86 1011.75
1020.20 1019.80 1019.47 1019.21 1019.01 1018.83 1018.63 1018.38 1018.06 1017.68 1017.27 1016.88 1016.56 1016.34 1016.24 1016.24 1016.27 1016.25 1016.09 1015.69 1014.99 1013.96 1012.61 1011.00 1009.25 1007.49 1005.83 1004.41 1003.29 1002.53 1002.16 1002.12 1002.38 1002.87 1003.52 1004.30 1005.14 1006.04 1006.95 1007.88 1008.82 1009.75 1010.67 1011.56
1020.96 1020.61 1020.38 1020.24 1020.18 1020.16 1020.14 1020.05 1019.87 1019.59 1019.22 1018.80 1018.37 1017.97 1017.65 1017.39 1017.17 1016.93 1016.59 1016.09 1015.36 1014.37 1013.10 1011.61 1009.98 1008.31 1006.71 1005.29 1004.12 1003.27 1002.76 1002.57 1002.68 1003.03 1003.58 1004.26 1005.05 1005.89 1006.78 1007.69 1008.61 1009.52 1010.43 1011.31
1021.58 1021.30 1021.14 1021.11 1021.17 1021.29 1021.41 1021.47 1021.42 1021.23 1020.90 1020.47 1019.97 1019.45 1018.95 1018.49 1018.06 1017.63 1017.16 1016.57 1015.81 1014.85 1013.66 1012.27 1010.75 1009.16 1007.60 1006.17 1004.94 1003.98 1003.34 1003.00 1002.96 1003.17 1003.60 1004.20 1004.92 1005.72 1006.59 1007.48 1008.38 1009.29 1010.19 1011.07
1022.10 1021.87 1021.78 1021.81 1021.96 1022.18 1022.40 1022.57 1022.61 1022.50 1022.23 1021.82 1021.29 1020.70 1020.09 1019.49 1018.92 1018.36 1017.78 1017.12 1016.35 1015.41 1014.27 1012.96 1011.51 1009.97 1008.43 1006.98 1005.69 1004.63 1003.85 1003.37 1003.19 1003.28 1003.61 1004.14 1004.81 1005.59 1006.43 1007.32 1008.22 1009.12 1010.01 1010.88
1022.55 1022.37 1022.32 1022.40 1022.59 1022.86 1023.13 1023.36 1023.46 1023.42 1023.20 1022.81 1022.29 1021.68 1021.02 1020.36 1019.70 1019.07 1018.42 1017.72 1016.92 1015.99 1014.89 1013.62 1012.21 1010.70 1009.16 1007.67 1006.31 1005.16 1004.27 1003.68 1003.39 1003.39 1003.64 1004.12 1004.76 1005.53 1006.38 1007.27 1008.18 1009.08 1009.96 1010.83
1022.98 1022.85 1022.83 1022.92 1023.12 1023.39 1023.67 1023.91 1024.04 1024.03 1023.85 1023.51 1023.02 1022.42 1021.76 1021.08 1020.39 1019.71 1019.02 1018.29 1017.48 1016.54 1015.45 1014.19 1012.79 1011.28 1009.73 1008.21 1006.80 1005.57 1004.61 1003.93 1003.57 1003.52 1003.74 1004.20 1004.84 1005.63 1006.49 1007.40 1008.32 1009.22 1010.10 1010.95
1023.48 1023.38 1023.38 1023.47 1023.64 1023.88 1024.13 1024.35 1024.47 1024.47 1024.32 1024.00 1023.55 1022.99 1022.35 1021.68 1020.98 1020.28 1019.56 1018.80 1017.96 1016.99 1015.89 1014.62 1013.21 1011.69 1010.12 1008.58 1007.13 1005.87 1004.87 1004.17 1003.78 1003.72 1003.94 1004.42 1005.09 1005.91 1006.81 1007.74 1008.67 1009.58 1010.45 1011.28
1024.06 1024.01 1024.01 1024.09 1024.23 1024.42 1024.62 1024.79 1024.89 1024.87 1024.73 1024.44 1024.02 1023.49 1022.88 1022.21 1021.51 1020.79 1020.03 1019.22 1018.33 1017.32 1016.18 1014.88 1013.45 1011.92 1010.35 1008.81 1007.37 1006.11 1005.12 1004.43 1004.07 1004.03 1004.30 1004.82 1005.54 1006.40 1007.34 1008.30 1009.25 1010.16 1011.02 1011.83
1024.76 1024.73 1024.75 1024.81 1024.91 1025.05 1025.20 1025.33 1025.39 1025.36 1025.21 1024.93 1024.53 1024.02 1023.42 1022.75 1022.03 1021.27 1020.46 1019.58 1018.62 1017.54 1016.34 1015.01 1013.56 1012.03 1010.48 1008.96 1007.57 1006.36 1005.42 1004.79 1004.48 1004.51 1004.83 1005.41 1006.19 1007.10 1008.08 1009.07 1010.03 1010.94 1011.79 1012.57
1025.52 1025.52 1025.54 1025.59 1025.67 1025.78 1025.89 1025.98 1026.02 1025.97 1025.82 1025.55 1025.16 1024.66 1024.05 1023.35 1022.59 1021.76 1020.87 1019.90 1018.85 1017.70 1016.44 1015.07 1013.61 1012.10 1010.59 1009.13 1007.81 1006.69 1005.84 1005.29 1005.07 1005.16 1005.55 1006.19 1007.02 1007.97 1008.98 1010.00 1010.97 1011.88 1012.71 1013.47
1026.25 1026.27 1026.30 1026.36 1026.44 1026.53 1026.63 1026.71 1026.74 1026.70 1026.56 1026.30 1025.91 1025.40 1024.77 1024.03 1023.20 1022.28 1021.29 1020.23 1019.08 1017.85 1016.53 1015.14 1013.69 1012.22 1010.77 1009.41 1008.19 1007.18 1006.43 1005.98 1005.85 1006.02 1006.47 1007.15 1008.02 1009.00 1010.03 1011.05 1012.03 1012.93 1013.74 1014.48
1026.88 1026.91 1026.95 1027.02 1027.11 1027.22 1027.33 1027.43 1027.49 1027.47 1027.35 1027.11 1026.73 1026.21 1025.55 1024.76 1023.85 1022.84 1021.75 1020.58 1019.35 1018.04 1016.68 1015.28 1013.87 1012.46 1011.11 1009.86 1008.77 1007.88 1007.25 1006.90 1006.84 1007.07 1007.56 1008.28 1009.15 1010.14 1011.17 1012.19 1013.16 1014.05 1014.85 1015.57
1027.32 1027.35 1027.40 1027.49 1027.60 1027.74 1027.90 1028.04 1028.15 1028.17 1028.10 1027.89 1027.53 1027.00 1026.32 1025.48 1024.51 1023.42 1022.24 1020.98 1019.67 1018.32 1016.94 1015.56 1014.20 1012.89 1011.65 1010.53 1009.57 1008.82 1008.30 1008.04 1008.05 1008.32 1008.83 1009.54 1010.40 1011.37 1012.38 1013.38 1014.34 1015.22 1016.01 1016.71
1027.53 1027.56 1027.62 1027.73 1027.88 1028.06 1028.27 1028.48 1028.64 1028.74 1028.72 1028.55 1028.22 1027.71 1027.02 1026.15 1025.12 1023.98 1022.73 1021.42 1020.06 1018.70 1017.33 1016.00 1014.72 1013.52 1012.41 1011.44 1010.62 1009.99 1009.57 1009.39 1009.45 1009.74 1010.24 1010.92 1011.75 1012.67 1013.64 1014.61 1015.54 1016.40 1017.18 1017.87
1027.56 1027.58 1027.64 1027.77 1027.95 1028.18 1028.45 1028.72 1028.96 1029.12 1029.17 1029.06 1028.77 1028.28 1027.60 1026.72 1025.67 1024.49 1023.22 1021.89 1020.53 1019.18 1017.86 1016.61 1015.43 1014.35 1013.39 1012.55 1011.87 1011.36 1011.04 1010.91 1011.00 1011.28 1011.76 1012.40 1013.17 1014.03 1014.95 1015.87 1016.77 1017.61 1018.36 1019.04
1027.49 1027.50 1027.57 1027.71 1027.92 1028.19 1028.52 1028.85 1029.15 1029.37 1029.48 1029.42 1029.18 1028.73 1028.06 1027.20 1026.16 1024.98 1023.71 1022.39 1021.06 1019.76 1018.52 1017.36 1016.30 1015.35 1014.53 1013.83 1013.27 1012.86 1012.62 1012.55 1012.64 1012.91 1013.35 1013.93 1014.63 1015.43 1016.28 1017.15 1018.00 1018.81 1019.54 1020.20
Thickness
5564 5553 5545 5548 5549 5549 5548 5545 5544 5552 5562 5557 5554 5556 5561 5567 5569 5571 5573 5575 5577 5578 5578 5579 5579 5580 5580 5581 5582 5584 5585 5588 5592 5595 5597 5600 5603 5605 5608 5612 5614 5618 5620 5622
5555 5546 5549 5551 5550 5547 5543 5539 5541 5550 5556 5551 5549 5552 5557 5562 5563 5565 5566 5568 5569 5570 5569 5570 5571 5571 5572 5572 5573 5576 5577 5580 5584 5586 5588 5591 5594 5596 5599 5602 5605 5607 5610 5612
5545 5545 5548 5547 5542 5540 5540 5537 5538 5539 5544 5549 5548 5547 5553 5557 5559 5560 5561 5563 5563 5563 5562 5562 5563 5563 5564 5564 5565 5568 5570 5573 5576 5579 5581 5583 5585 5586 5589 5592 5595 5597 5600 5602
5543 5543 5542 5540 5537 5535 5532 5540 5538 5537 5533 5533 5543 5531 5545 5549 5550 5552 5553 5554 5554 5555 5555 5555 5556 5556 5556 5557 5558 5559 5562 5564 5568 5571 5572 5574 5575 5575 5578 5581 5584 5587 5590 5592
5535 5535 5533 5532 5532 5533 5531 5537 5536 5536 5532 5528 5534 5529 5537 5544 5541 5543 5545 5547 5547 5548 5548 5548 5549 5550 5550 5550 5551 5551 5553 5556 5559 5561 5564 5565 5566 5567 5569 5572 5574 5577 5580 5582
5532 5533 5529 5527 5530 5532 5531 5532 5534 5534 5527 5517 5531 5529 5528 5533 5537 5539 5540 5540 5540 5540 5540 5540 5541 5542 5543 5543 5544 5544 5546 5547 5550 5552 5554 5556 5557 5558 5560 5562 5564 5567 5569 5572
5527 5527 5526 5525 5523 5525 5524 5515 5511 5511 5511 5518 5535 5528 5522 5533 5537 5536 5535 5533 5533 5532 5532 5532 5533 5534 5535 5536 5536 5537 5539 5540 5542 5544 5545 5547 5548 5549 5551 5554 5555 5557 5559 5562
5516 5516 5518 5517 5515 5511 5514 5512 5500 5500 5506 5516 5525 5518 5522 5531 5533 5533 5532 5529 5527 5526 5526 5526 5526 5526 5527 5529 5529 5530 5532 5533 5535 5536 5537 5538 5538 5540 5543 5545 5547 5549 5551 5553
5507 5508 5515 5515 5513 5511 5509 5505 5509 5500 5504 5501 5512 5520 5520 5525 5524 5525 5524 5521 5519 5518 5519 5519 5520 5520 5520 5521 5522 5523 5525 5526 5527 5527 5528 5529 5529 5531 5533 5535 5538 5540 5542 5544
5502 5496 5507 5510 5510 5507 5505 5505 5497 5493 5492 5497 5508 5513 5508 5508 5510 5514 5513 5511 5510 5510 5510 5511 5512 5513 5514 5515 5516 5516 5517 5518 5519 5519 5519 5521 5521 5522 5524 5526 5528 5530 5532 5535
5498 5489 5496 5500 5494 5494 5496 5493 5491 5492 5495 5491 5490 5495 5507 5504 5503 5504 5504 5504 5503 5502 5502 5503 5504 5506 5507 5508 5508 5509 5510 5510 5510 5510 5511 5512 5512 5513 5515 5517 5518 5520 5523 5526
5493 5485 5483 5492 5495 5494 5492 5489 5484 5476 5480 5488 5481 5483 5501 5497 5496 5496 5496 5496 5496 5495 5495 5496 5497 5498 5499 5500 5500 5501 5502 5502 5502 5502 5503 5503 5504 5504 5506 5507 5509 5511 5513 5515
5484 5474 5472 5482 5483 5483 5482 5483 5480 5477 5475 5477 5475 5479 5493 5490 5489 5489 5487 5487 5487 5487 5488 5488 5489 5490 5492 5492 5493 5493 5494 5494 5494 5494 5494 5494 5494 5495 5496 5497 5499 5501 5503 5505
5483 5466 5466 5472 5477 5473 5471 5474 5475 5471 5466 5472 5477 5478 5483 5483 5481 5481 5480 5479 5478 5479 5480 5480 5480 5481 5483 5484 5485 5485 5485 5485 5485 5485 5485 5485 5485 5486 5486 5488 5489 5491 5493 5495
5473 5462 5462 5466 5473 5472 5469 5469 5471 5469 5470 5469 5474 5475 5479 5476 5474 5474 5473 5473 5472 5472 5472 5472 5472 5472 5474 5475 5476 5476 5476 5476 5476 5476 5476 5476 5477 5477 5478 5479 5480 5481 5483 5485
5464 5457 5458 5460 5468 5466 5463 5465 5467 5466 5468 5469 5469 5470 5473 5471 5470 5468 5466 5466 5464 5464 5464 5465 5465 5465 5466 5467 5468 5468 5468 5468 5468 5468 5468 5468 5468 5468 5469 5469 5471 5472 5473 5475
5453 5449 5451 5456 5462 5459 5456 5463 5461 5461 5463 5463 5462 5465 5465 5463 5462 5459 5459 5458 5456 5456 5456 5456 5456 5457 5457 5458 5460 5460 5460 5460 5459 5459 5459 5459 5460 5460 5460 5461 5462 5462 5464 5466
5446 5443 5443 5446 5447 5442 5464 5468 5465 5460 5457 5458 5458 5460 5459 5455 5454 5454 5453 5449 5448 5448 5448 5447 5447 5449 5450 5451 5452 5452 5452 5452 5451 5451 5451 5451 5452 5451 5451 5452 5452 5453 5455 5456
5447 5441 5439 5439 5441 5449 5460 5459 5456 5451 5451 5455 5453 5452 5450 5446 5445 5446 5446 5443 5440 5439 5439 5439 5440 5441 5443 5444 5445 5445 5445 5444 5443 5443 5443 5443 5443 5443 5443 5443 5443 5444 5445 5447
5439 5435 5431 5434 5435 5442 5456 5452 5452 5448 5442 5451 5448 5444 5440 5437 5434 5437 5438 5436 5433 5432 5432 5432 5432 5433 5434 5436 5437 5437 5436 5435 5435 5434 5434 5434 5434 5434 5434 5434 5434 5435 5435 5437
5424 5424 5423 5426 5429 5437 5445 5443 5443 5435 5441 5444 5442 5439 5434 5428 5427 5429 5430 5428 5426 5425 5425 5425 5425 5424 5425 5427 5428 5428 5427 5426 5426 5426 5426 5425 5425 5425 5425 5424 5424 5425 5426 5426
5421 5419 5419 5422 5423 5432 5436 5433 5430 5434 5437 5436 5435 5432 5428 5423 5423 5423 5421 5419 5418 5416 5417 5417 5416 5416 5416 5417 5418 5418 5417 5418 5418 5417 5417 5416 5416 5416 5416 5415 5415 5415 5415 5416
5425 5426 5423 5422 5428 5433 5431 5429 5429 5430 5429 5428 5426 5424 5420 5417 5416 5415 5413 5411 5410 5408 5407 5408 5407 5406 5407 5407 5408 5408 5408 5409 5409 5408 5407 5407 5407 5407 5406 5406 5405 5405 5405 5404
5427 5425 5422 5420 5425 5427 5425 5424 5423 5422 5421 5420 5418 5415 5413 5410 5408 5406 5405 5403 5402 5400 5398 5398 5398 5397 5397 5398 5398 5398 5399 5399 5399 5398 5397 5397 5397 5397 5396 5395 5395 5394 5394 5393
5429 5417 5414 5414 5420 5420 5422 5420 5417 5415 5414 5412 5410 5408 5406 5404 5402 5400 5397 5395 5394 5392 5390 5389 5388 5388 5388 5389 5389 5389 5389 5389 5388 5388 5387 5387 5387 5386 5385 5384 5384 5383 5383 5382
5423 5416 5413 5418 5421 5416 5417 5416 5413 5409 5406 5404 5401 5400 5398 5397 5395 5393 5390 5388 5386 5384 5382 5381 5380 5379 5379 5379 5379 5379 5379 5379 5378 5378 5377 5376 5375 5374 5374 5373 5373 5373 5373 5373